Total_Precipitation_Accumulation
0.17 0.19 0.22 0.17 0.17 0.18 0.19 0.23 0.30 0.36 0.25 0.21 0.22 0.24 0.22 0.16 0.14 0.13 0.12 0.13 0.18 0.25 0.29 0.31 0.34 0.37 0.39 0.39 0.37 0.33 0.30 0.30 0.31 0.34 0.41 0.50 0.59 0.64 0.69 0.69 0.83 0.91 0.70
0.17 0.16 0.20 0.18 0.15 0.17 0.20 0.22 0.28 0.35 0.26 0.22 0.21 0.20 0.20 0.17 0.15 0.14 0.13 0.15 0.19 0.25 0.27 0.27 0.30 0.32 0.31 0.27 0.27 0.29 0.28 0.32 0.38 0.50 0.63 0.62 0.71 0.74 0.81 0.78 1.01 1.31 0.83
0.16 0.15 0.15 0.22 0.19 0.17 0.19 0.20 0.25 0.32 0.28 0.26 0.21 0.19 0.20 0.19 0.18 0.18 0.18 0.20 0.26 0.32 0.32 0.31 0.33 0.35 0.32 0.28 0.29 0.29 0.31 0.40 0.53 0.80 1.16 1.09 1.01 0.94 0.89 0.82 0.84 0.90 0.80
0.15 0.14 0.13 0.17 0.21 0.18 0.18 0.20 0.26 0.32 0.28 0.29 0.24 0.20 0.21 0.20 0.20 0.21 0.22 0.24 0.31 0.38 0.38 0.37 0.37 0.35 0.34 0.31 0.34 0.36 0.40 0.49 0.74 1.09 1.59 1.48 1.36 1.32 1.13 0.96 0.87 0.85 0.80
0.19 0.16 0.15 0.16 0.19 0.19 0.20 0.21 0.30 0.34 0.29 0.30 0.25 0.22 0.22 0.21 0.20 0.23 0.26 0.28 0.31 0.37 0.36 0.32 0.29 0.30 0.35 0.33 0.36 0.40 0.48 0.69 1.00 1.35 1.82 1.97 2.03 1.70 1.21 0.97 0.96 1.00 0.95
0.25 0.19 0.14 0.16 0.17 0.20 0.24 0.26 0.36 0.33 0.30 0.32 0.28 0.27 0.26 0.26 0.26 0.28 0.34 0.37 0.37 0.40 0.39 0.36 0.34 0.34 0.38 0.35 0.39 0.45 0.57 0.86 1.10 1.44 1.97 2.17 1.91 1.67 1.31 1.12 1.07 1.05 0.94
0.32 0.25 0.19 0.19 0.21 0.27 0.35 0.37 0.47 0.40 0.39 0.40 0.40 0.37 0.33 0.32 0.34 0.35 0.40 0.44 0.42 0.43 0.43 0.42 0.44 0.42 0.40 0.37 0.39 0.46 0.62 0.88 1.14 1.92 2.08 2.04 1.93 1.74 1.52 1.31 1.14 1.04 0.96
0.37 0.31 0.29 0.26 0.31 0.40 0.48 0.49 0.58 0.49 0.48 0.47 0.48 0.46 0.41 0.37 0.36 0.38 0.41 0.45 0.48 0.52 0.50 0.45 0.41 0.39 0.38 0.40 0.39 0.44 0.60 0.71 0.92 1.54 1.86 1.83 1.59 1.54 1.64 1.41 1.26 1.12 1.02
0.56 0.45 0.41 0.37 0.39 0.49 0.61 0.60 0.62 0.54 0.53 0.53 0.56 0.57 0.51 0.44 0.40 0.40 0.47 0.50 0.52 0.52 0.47 0.43 0.41 0.39 0.40 0.42 0.45 0.47 0.58 0.73 0.92 1.29 1.46 1.61 1.39 1.43 1.67 1.56 1.32 1.17 1.10
0.87 0.72 0.63 0.61 0.60 0.62 0.67 0.70 0.66 0.59 0.59 0.60 0.61 0.58 0.55 0.48 0.45 0.49 0.50 0.55 0.52 0.54 0.55 0.54 0.52 0.51 0.51 0.50 0.53 0.58 0.63 0.70 0.80 1.13 1.75 1.73 1.40 1.69 1.84 1.64 1.46 1.34 1.18
0.99 1.09 1.02 0.89 0.85 0.84 0.78 0.75 0.78 0.69 0.65 0.67 0.68 0.61 0.58 0.62 0.72 0.71 0.61 0.64 0.63 0.69 0.80 0.76 0.70 0.69 0.66 0.65 0.69 0.76 0.75 0.64 0.90 1.46 2.04 1.85 1.64 1.91 1.99 1.81 1.64 1.57 1.41
1.21 1.32 1.34 1.30 1.23 1.15 1.05 1.14 1.16 1.01 0.90 0.83 0.91 0.83 0.82 1.08 1.15 1.01 1.06 0.99 0.95 0.93 0.97 1.00 0.92 0.83 0.80 0.74 0.81 0.87 0.74 0.74 1.19 1.83 1.90 1.49 1.73 2.11 2.24 2.08 1.91 1.82 1.73
1.54 1.35 1.27 1.41 1.52 1.61 1.68 1.54 1.53 1.51 1.45 1.33 1.43 1.33 1.37 1.55 1.44 1.46 1.54 1.40 1.25 1.17 1.16 1.32 1.19 0.92 0.85 0.91 0.99 0.97 0.90 0.92 1.22 1.73 1.86 1.70 1.90 2.26 2.46 2.36 2.13 2.04 2.04
1.86 1.68 1.46 1.43 1.52 1.73 1.90 1.81 1.78 1.76 1.74 1.66 1.67 1.50 1.70 1.87 1.96 1.99 2.08 1.87 1.78 1.71 1.73 1.72 1.63 1.37 1.20 1.16 1.14 1.17 1.20 1.15 1.32 1.64 1.78 1.58 1.72 2.16 2.60 2.64 2.39 2.27 2.23
2.25 2.09 1.90 1.70 1.68 1.85 2.07 2.15 2.08 2.09 2.05 2.15 2.25 2.02 2.04 2.05 2.14 2.44 2.44 2.57 2.23 2.22 2.28 2.20 1.98 1.87 1.70 1.52 1.43 1.39 1.42 1.35 1.42 1.61 1.64 1.61 1.73 2.06 2.48 2.69 2.66 2.67 2.61
2.81 2.47 2.24 2.13 1.97 1.97 2.05 2.26 2.39 2.26 2.33 2.43 2.56 2.44 2.45 2.53 2.64 2.97 3.05 3.00 2.74 2.76 2.93 2.96 2.75 2.49 2.24 2.09 1.86 1.81 1.76 1.74 1.83 1.88 1.86 1.79 1.68 1.75 2.19 2.60 2.89 3.07 3.04
2.99 2.88 2.71 2.60 2.55 2.34 2.29 2.50 2.66 2.59 2.52 2.52 2.70 2.82 2.79 2.87 3.19 3.31 3.56 3.48 3.25 3.22 3.25 3.21 3.38 3.34 2.84 2.49 2.29 2.21 2.20 2.13 2.17 2.21 2.28 2.20 1.94 1.83 1.96 2.26 2.56 2.77 2.89
3.18 2.96 2.91 2.64 2.60 2.76 2.76 3.01 3.01 3.07 3.19 3.11 3.11 3.30 3.33 3.39 3.52 3.57 3.57 3.59 3.49 3.44 3.70 3.80 3.74 3.66 3.42 3.05 2.80 2.52 2.39 2.43 2.25 2.21 2.24 2.27 2.30 1.99 1.81 1.81 1.98 2.18 2.49
2.67 2.77 2.92 2.87 2.79 2.82 3.00 3.35 3.51 3.67 3.86 4.06 4.08 4.24 4.18 4.01 3.95 4.01 3.98 4.05 3.90 3.93 3.87 3.73 4.04 3.95 3.78 3.43 2.94 2.64 2.38 2.39 2.29 2.01 2.02 2.10 2.16 2.05 1.96 1.78 1.83 1.99 2.31
2.59 2.78 2.95 3.10 3.26 3.20 3.22 3.44 3.88 4.09 4.25 4.63 4.69 4.69 4.76 4.79 4.68 4.65 4.58 4.58 4.44 4.32 4.17 4.10 4.12 3.87 3.71 3.46 2.91 2.65 2.37 2.09 2.05 2.02 1.83 1.86 1.89 1.77 1.86 1.87 1.94 1.82 2.02
2.77 2.95 2.93 3.09 3.41 3.66 4.03 4.01 4.23 4.67 5.03 5.17 5.28 5.25 5.17 5.09 5.09 4.94 4.76 4.85 4.69 4.48 4.24 4.11 4.07 3.94 3.58 3.42 3.35 2.97 2.42 2.04 1.89 1.77 1.77 1.75 1.64 1.65 1.85 1.87 1.87 1.81 1.75
2.78 3.04 3.18 3.28 3.68 4.18 4.73 5.26 5.66 6.01 6.01 6.13 6.08 5.97 5.67 5.48 5.35 5.17 5.13 4.97 4.75 4.59 4.36 4.16 4.08 3.96 3.62 3.52 3.51 3.44 2.78 2.26 1.77 1.41 1.50 1.54 1.49 1.54 1.59 1.56 1.55 1.61 1.65
2.78 3.05 3.23 3.53 4.12 4.94 5.46 5.93 6.51 6.84 6.56 6.30 6.01 5.94 5.84 5.76 5.63 5.46 5.39 5.13 4.90 4.63 4.30 4.04 3.90 3.78 3.65 3.60 3.47 3.56 3.08 2.47 1.98 1.58 1.38 1.31 1.36 1.49 1.49 1.50 1.44 1.39 1.47
2.85 2.98 3.18 3.74 4.45 5.12 5.66 6.28 6.89 7.19 7.25 7.05 6.49 6.00 5.57 5.27 5.03 4.90 4.85 4.67 4.48 4.20 3.97 3.70 3.59 3.51 3.62 3.46 3.38 3.21 2.96 2.61 2.35 1.98 1.63 1.44 1.39 1.39 1.41 1.39 1.38 1.40 1.42
2.54 3.01 3.33 3.89 4.56 5.21 5.94 6.68 7.14 7.37 7.39 7.01 6.23 5.47 4.93 4.59 4.29 4.06 4.00 3.89 3.73 3.55 3.37 3.29 3.27 3.22 3.19 3.05 2.91 2.86 2.85 2.79 2.50 2.18 1.85 1.60 1.51 1.44 1.41 1.42 1.50 1.51 1.51
2.42 2.82 3.30 3.62 4.21 4.89 5.50 6.07 6.26 6.42 6.37 5.97 5.56 5.07 4.64 4.11 3.64 3.29 3.14 3.05 2.91 2.80 2.79 2.81 2.84 2.80 2.79 2.76 2.68 2.57 2.50 2.49 2.35 2.25 1.97 1.75 1.73 1.61 1.49 1.44 1.40 1.45 1.52